User: anonymous   Login
Location: ?
(35.4554°N, 139.3092°E)
Time: 09:23:23
(UTC+00:00)
Language:

Cosmos 2298 Rocket - Orbit

View from above orbital plane
View from above orbital plane
View from above satellite
View from above satellite

Ground track
Ground track

The orbit data is extracted from the following two-line orbital elements,

1 23432U 94083B   21164.69465272 -.00000020  00000-0  21616-5 0  9997
2 23432  74.0305 152.5219 0005314 354.5474 178.7778 14.33560445384921
Epoch (UTC): 13 June 2021 16:40:17
Eccentricity: 0.0005314
inclination: 74.0305°
perigee height: 776 km
apogee height: 783 km
right ascension of ascending node: 152.5219°
argument of perigee: 354.5474°
revolutions per day: 14.33560445
mean anomaly at epoch: 178.7778°
orbit number at epoch: 38492

The dashed part of the orbit path shows where the satellite is in the earth's shadow,  

DLR